Location: Unspecified
(0.0000°N, 0.0000°E)
Time: 22:49:50
(UTC+00:00)

Tiangong - Pass Details

Date: 23 January 2022
Orbit: 381 x 387 km, 41.5° (Epoch: 27 January)

Event Time Altitude Azimuth Distance (km) Brightness Sun altitude
Exits shadow 04:19:46 12° 61° (ENE) 1,267 4.1 -26.3°
Drops below altitude 10° 04:20:29 10° 74° (ENE) 1,385 4.5 -26.1°
Sets 04:23:22 0° 103° (ESE) 2,240 6.3 -25.4°
